When you browse on this site, cookies collect data to enhance your experience and personalize the content and advertising you see.
Visit our Privacy Policy to learn more. By continuing to use the site, you agree to this use of cookies and data.
  • In United Kingdom
  • List of Countries
  • For 7 days
  • Water Temperature
  • Satellite Maps
  • Weather Map
  • Weather Widgets
  • user-avatar
    Login

    Hourly Weather Laszkar Gah

    Today, 23 May, Thursday

    Time Temperature Precipitation Wind Pressure Humidity
    00:00 +29°C° 0 mm 5 mps 691 mmHg 30%
    01:00 +29°C° 0 mm 6 mps 691 mmHg 30%
    02:00 +28°C° 0 mm 6 mps 691 mmHg 31%
    03:00 +27°C° 0 mm 6 mps 691 mmHg 31%
    04:00 +26°C° 0 mm 5 mps 690 mmHg 31%
    05:00 +26°C° 0 mm 5 mps 691 mmHg 30%
    06:00 +26°C° 0 mm 5 mps 691 mmHg 29%
    07:00 +27°C° 0 mm 6 mps 691 mmHg 28%
    08:00 +28°C° 0 mm 6 mps 692 mmHg 26%
    09:00 +30°C° 0 mm 7 mps 692 mmHg 24%
    10:00 +31°C° 0 mm 8 mps 693 mmHg 24%
    11:00 +32°C° 0 mm 8 mps 693 mmHg 22%
    12:00 +33°C° 0 mm 8 mps 693 mmHg 20%
    13:00 +34°C° 0 mm 9 mps 692 mmHg 18%
    14:00 +34°C° 0 mm 9 mps 692 mmHg 18%
    15:00 +34°C° 0 mm 9 mps 692 mmHg 18%
    16:00 +33°C° 0 mm 9 mps 691 mmHg 18%
    17:00 +33°C° 0 mm 8 mps 691 mmHg 19%
    18:00 +32°C° 0 mm 7 mps 691 mmHg 20%
    19:00 +30°C° 0 mm 6 mps 691 mmHg 21%
    20:00 +30°C° 0 mm 5 mps 691 mmHg 23%
    21:00 +29°C° 0 mm 4 mps 692 mmHg 24%
    22:00 +28°C° 0 mm 4 mps 692 mmHg 25%
    23:00 +28°C° 0 mm 4 mps 692 mmHg 26%

    Tomorrow, 24 May, Friday

    Time Temperature Precipitation Wind Pressure Humidity
    00:00 +27°C° 0 mm 5 mps 692 mmHg 28%
    01:00 +27°C° 0 mm 5 mps 691 mmHg 29%
    02:00 +26°C° 0 mm 5 mps 691 mmHg 29%
    03:00 +25°C° 0 mm 5 mps 691 mmHg 30%
    04:00 +23°C° 0 mm 6 mps 691 mmHg 31%
    05:00 +24°C° 0 mm 6 mps 692 mmHg 29%
    06:00 +24°C° 0 mm 6 mps 692 mmHg 27%
    07:00 +24°C° 0 mm 6 mps 693 mmHg 26%
    08:00 +27°C° 0 mm 6 mps 693 mmHg 24%
    09:00 +28°C° 0 mm 5 mps 693 mmHg 22%
    10:00 +30°C° 0 mm 5 mps 694 mmHg 21%
    11:00 +32°C° 0 mm 5 mps 693 mmHg 19%
    12:00 +33°C° 0 mm 5 mps 693 mmHg 17%
    13:00 +34°C° 0 mm 5 mps 693 mmHg 16%
    14:00 +35°C° 0 mm 5 mps 693 mmHg 14%
    15:00 +35°C° 0 mm 5 mps 692 mmHg 13%
    16:00 +35°C° 0 mm 6 mps 692 mmHg 12%
    17:00 +35°C° 0 mm 5 mps 692 mmHg 12%
    18:00 +34°C° 0 mm 5 mps 692 mmHg 12%
    19:00 +33°C° 0 mm 4 mps 692 mmHg 12%
    20:00 +32°C° 0 mm 4 mps 693 mmHg 13%
    21:00 +32°C° 0 mm 4 mps 693 mmHg 14%
    22:00 +30°C° 0 mm 5 mps 693 mmHg 15%
    23:00 +29°C° 0 mm 4 mps 693 mmHg 16%

    Day after tomorrow, 25 May, Saturday

    Time Temperature Precipitation Wind Pressure Humidity
    00:00 +28°C° 0 mm 4 mps 693 mmHg 18%
    01:00 +28°C° 0 mm 3 mps 692 mmHg 19%
    02:00 +27°C° 0 mm 3 mps 692 mmHg 21%
    03:00 +26°C° 0 mm 2 mps 692 mmHg 22%
    04:00 +26°C° 0 mm 2 mps 691 mmHg 23%
    05:00 +27°C° 0 mm 1 mps 692 mmHg 22%
    06:00 +28°C° 0 mm 1 mps 693 mmHg 20%
    07:00 +29°C° 0 mm 1 mps 693 mmHg 18%
    08:00 +31°C° 0 mm 1 mps 693 mmHg 16%
    09:00 +32°C° 0 mm 1 mps 693 mmHg 13%
    10:00 +35°C° 0 mm 2 mps 694 mmHg 10%
    11:00 +36°C° 0 mm 2 mps 693 mmHg 9%
    12:00 +37°C° 0 mm 3 mps 693 mmHg 9%
    13:00 +38°C° 0 mm 3 mps 693 mmHg 8%
    14:00 +38°C° 0 mm 4 mps 692 mmHg 8%
    15:00 +40°C° 0 mm 4 mps 692 mmHg 8%
    16:00 +40°C° 0 mm 4 mps 691 mmHg 8%
    17:00 +38°C° 0 mm 4 mps 691 mmHg 9%
    18:00 +39°C° 0 mm 5 mps 691 mmHg 10%
    19:00 +37°C° 0 mm 5 mps 691 mmHg 11%
    20:00 +36°C° 0 mm 5 mps 691 mmHg 12%
    21:00 +35°C° 0 mm 5 mps 691 mmHg 13%
    22:00 +34°C° 0 mm 6 mps 691 mmHg 14%
    23:00 +33°C° 0 mm 6 mps 691 mmHg 14%

    26 May, Sunday

    Time Temperature Precipitation Wind Pressure Humidity
    00:00 +32°C° 0 mm 5 mps 691 mmHg 15%
    01:00 +32°C° 0 mm 5 mps 690 mmHg 16%
    02:00 +30°C° 0 mm 5 mps 690 mmHg 17%
    03:00 +29°C° 0 mm 5 mps 690 mmHg 18%
    04:00 +28°C° 0 mm 5 mps 690 mmHg 19%
    05:00 +29°C° 0 mm 6 mps 690 mmHg 19%
    06:00 +30°C° 0 mm 6 mps 691 mmHg 18%
    07:00 +32°C° 0 mm 7 mps 691 mmHg 17%
    08:00 +33°C° 0 mm 7 mps 691 mmHg 14%
    09:00 +35°C° 0 mm 6 mps 692 mmHg 11%
    10:00 +38°C° 0 mm 6 mps 692 mmHg 8%
    11:00 +37°C° 0 mm 5 mps 692 mmHg 7%
    12:00 +39°C° 0 mm 5 mps 691 mmHg 6%
    13:00 +40°C° 0 mm 4 mps 691 mmHg 5%
    14:00 +40°C° 0 mm 4 mps 690 mmHg 4%
    15:00 +39°C° 0 mm 3 mps 690 mmHg 4%
    16:00 +39°C° 0 mm 3 mps 690 mmHg 4%
    17:00 +38°C° 0 mm 3 mps 690 mmHg 4%
    18:00 +37°C° 0 mm 3 mps 690 mmHg 5%
    19:00 +36°C° 0 mm 3 mps 690 mmHg 6%
    20:00 +35°C° 0 mm 3 mps 690 mmHg 7%
    21:00 +35°C° 0 mm 3 mps 690 mmHg 8%
    22:00 +34°C° 0 mm 3 mps 690 mmHg 8%
    23:00 +33°C° 0 mm 3 mps 690 mmHg 9%

    27 May, Monday

    Time Temperature Precipitation Wind Pressure Humidity
    00:00 +31°C° 0 mm 2 mps 690 mmHg 10%
    01:00 +30°C° 0 mm 2 mps 689 mmHg 10%
    02:00 +29°C° 0 mm 2 mps 689 mmHg 11%
    03:00 +29°C° 0 mm 2 mps 689 mmHg 12%
    04:00 +28°C° 0 mm 2 mps 689 mmHg 13%
    05:00 +29°C° 0 mm 2 mps 690 mmHg 12%
    06:00 +30°C° 0 mm 2 mps 691 mmHg 11%
    07:00 +31°C° 0 mm 3 mps 691 mmHg 11%
    08:00 +34°C° 0 mm 2 mps 692 mmHg 10%
    09:00 +35°C° 0 mm 2 mps 692 mmHg 9%
    10:00 +37°C° 0 mm 2 mps 692 mmHg 7%
    11:00 +38°C° 0 mm 2 mps 692 mmHg 7%
    12:00 +39°C° 0 mm 2 mps 691 mmHg 6%
    13:00 +40°C° 0 mm 2 mps 691 mmHg 5%
    14:00 +40°C° 0 mm 2 mps 691 mmHg 5%
    15:00 +40°C° 0 mm 3 mps 691 mmHg 5%
    16:00 +42°C° 0 mm 3 mps 690 mmHg 5%
    17:00 +40°C° 0 mm 3 mps 690 mmHg 5%
    18:00 +39°C° 0 mm 3 mps 690 mmHg 6%
    19:00 +38°C° 0 mm 3 mps 690 mmHg 7%
    20:00 +37°C° 0 mm 3 mps 690 mmHg 7%
    21:00 +36°C° 0 mm 3 mps 690 mmHg 7%
    22:00 +35°C° 0 mm 3 mps 691 mmHg 8%
    23:00 +34°C° 0 mm 3 mps 690 mmHg 8%

    28 May, Tuesday

    Time Temperature Precipitation Wind Pressure Humidity
    00:00 +33°C° 0 mm 3 mps 690 mmHg 9%
    01:00 +31°C° 0 mm 2 mps 689 mmHg 9%
    02:00 +30°C° 0 mm 2 mps 689 mmHg 10%
    03:00 +29°C° 0 mm 1 mps 689 mmHg 11%
    04:00 +26°C° 0 mm 0 mps 689 mmHg 12%
    05:00 +30°C° 0 mm 1 mps 690 mmHg 11%
    06:00 +32°C° 0 mm 2 mps 691 mmHg 9%
    07:00 +34°C° 0 mm 3 mps 692 mmHg 8%
    08:00 +35°C° 0 mm 3 mps 692 mmHg 7%
    09:00 +37°C° 0 mm 3 mps 692 mmHg 7%
    10:00 +38°C° 0 mm 4 mps 692 mmHg 6%
    11:00 +40°C° 0 mm 4 mps 692 mmHg 5%
    12:00 +41°C° 0 mm 4 mps 692 mmHg 5%
    13:00 +42°C° 0 mm 4 mps 691 mmHg 4%
    14:00 +42°C° 0 mm 4 mps 691 mmHg 4%
    15:00 +42°C° 0 mm 4 mps 690 mmHg 4%
    16:00 +42°C° 0 mm 3 mps 690 mmHg 3%
    17:00 +40°C° 0 mm 3 mps 690 mmHg 4%
    18:00 +38°C° 0 mm 3 mps 690 mmHg 4%
    19:00 +37°C° 0 mm 2 mps 690 mmHg 5%
    20:00 +36°C° 0 mm 2 mps 690 mmHg 5%
    21:00 +36°C° 0 mm 2 mps 690 mmHg 6%
    22:00 +35°C° 0 mm 2 mps 690 mmHg 6%
    23:00 +34°C° 0 mm 2 mps 690 mmHg 7%
    Show more